map of YKS home
Great Circle Mapper logo
YKS - Airport
Location
City:  Yakutsk, Sakha, Russian Federation (Russia)
ICAO / IATA:UEEE / YKS

Details
Type:Airport (Aerodrome, Airfield)
Use:Public/Civil
Latitude:6205'36"N (62.093250)
Longitude:12946'14"E (129.770672)
Datum:WGS 1984
Elevation:325 ft (99 m)
Variation:15.5W (WMM2010 magnetic declination)
Runways:2
Longest:11155 × 197 ft (3400 × 60 m), paved

Time
Time Zone:UTC+9 (DST+10)

Weather
METAR:UEEE 282030Z 14001MPS 5000 -SN BR SCT100 OVC200 M37/M41 Q1024 NOSIG RMK QFE759 23490150
TAF:UEEE 282000Z 2821/3003 VRB02MPS 3000 -SN BR OVC070
TEMPO 2821/2903 0300 FG VV002

Related Locations
Nearby:
Farthest:SAWB: 12183 mi / 19607 km
Base Marambio, Seymour Island, AQ

Find:

   beyond  
but within

Other Information
Maps:
NOTAMs:
Links:
Sources:

  
flag of Russian Federation (Russia)   

Sectional Chart

Flight Planning
at skyvector.com

Satellite Image

Google Maps Satellite View

 

Copyright © 2004-2014 Karl L. Swartz. All rights reserved.
The Great Circle Mapper name and logo are trademarks of the Great Circle Mapper.
All other trademarks mentioned herein belong to their respective owners.
Please see credits for attibutions and further copyright information.

  Follow gcmap on Facebook Follow gcmap on Twitter

hCard Microformat

Geo Microformat